User: anonymous   Login
Location: Mat�lon
(46.2791°N, 7.1028°E)
Time: 22:10:59
(UTC+00:00)
Language:

Cosmos 1833 Rocket - Orbit

View from above orbital plane
View from above orbital plane
View from above satellite
View from above satellite

Ground track
Ground track

The orbit data is extracted from the following two-line orbital elements,

1 17590U 87027B   20328.12245794  .00000064  00000-0  55839-4 0  9999
2 17590  71.0047  27.2602 0005936 213.3129 146.7622 14.16793217741861
Epoch (UTC): 23 November 2020 02:56:20
Eccentricity: 0.0005936
inclination: 71.0047°
perigee height: 832 km
apogee height: 840 km
right ascension of ascending node: 27.2602°
argument of perigee: 213.3129°
revolutions per day: 14.16793217
mean anomaly at epoch: 146.7622°
orbit number at epoch: 74186

The dashed part of the orbit path shows where the satellite is in the earth's shadow,  

DLR